When you browse on this site, cookies collect data to enhance your experience and personalize the content and advertising you see.
Visit our Privacy Policy to learn more. By continuing to use the site, you agree to this use of cookies and data.
  • In Spain
  • List of Countries
  • For 7 days
  • Water Temperature
  • Satellite Maps
  • Weather Map
  • Weather Widgets
  • user-avatar
    Login

    Hourly Weather Borovkovskiy

    Today, 18 June, Tuesday

    Time Temperature Precipitation Wind Pressure Humidity
    00:00 +16°C° 0 mm 1 mps 740 mmHg 82%
    01:00 +16°C° 0 mm 1 mps 740 mmHg 84%
    02:00 +16°C° 0 mm 1 mps 740 mmHg 86%
    03:00 +16°C° 0 mm 1 mps 739 mmHg 87%
    04:00 +16°C° 0.1 mm 1 mps 739 mmHg 87%
    05:00 +17°C° 0.1 mm 2 mps 739 mmHg 88%
    06:00 +17°C° 0.1 mm 2 mps 739 mmHg 89%
    07:00 +19°C° 0.2 mm 2 mps 739 mmHg 84%
    08:00 +20°C° 0.2 mm 2 mps 739 mmHg 80%
    09:00 +23°C° 0.2 mm 2 mps 739 mmHg 76%
    10:00 +24°C° 0.5 mm 2 mps 739 mmHg 72%
    11:00 +25°C° 0.5 mm 2 mps 739 mmHg 68%
    12:00 +26°C° 0.5 mm 2 mps 739 mmHg 64%
    13:00 +26°C° 0.4 mm 3 mps 739 mmHg 65%
    14:00 +26°C° 0.4 mm 3 mps 739 mmHg 65%
    15:00 +26°C° 0 mm 3 mps 739 mmHg 66%
    16:00 +25°C° 0.4 mm 3 mps 739 mmHg 69%
    17:00 +25°C° 0.4 mm 3 mps 739 mmHg 72%
    18:00 +24°C° 0.4 mm 3 mps 739 mmHg 75%
    19:00 +22°C° 0.1 mm 3 mps 739 mmHg 78%
    20:00 +20°C° 0.1 mm 3 mps 739 mmHg 80%
    21:00 +19°C° 0.1 mm 3 mps 739 mmHg 83%
    22:00 +18°C° 0 mm 3 mps 739 mmHg 84%
    23:00 +17°C° 0 mm 3 mps 740 mmHg 86%

    Tomorrow, 19 June, Wednesday

    Time Temperature Precipitation Wind Pressure Humidity
    00:00 +16°C° 0 mm 3 mps 740 mmHg 87%
    01:00 +16°C° 0 mm 3 mps 740 mmHg 88%
    02:00 +14°C° 0 mm 3 mps 740 mmHg 88%
    03:00 +14°C° 0 mm 3 mps 740 mmHg 88%
    04:00 +14°C° 0 mm 3 mps 740 mmHg 87%
    05:00 +14°C° 0 mm 3 mps 741 mmHg 85%
    06:00 +14°C° 0 mm 3 mps 741 mmHg 84%
    07:00 +17°C° 0 mm 3 mps 741 mmHg 79%
    08:00 +19°C° 0 mm 3 mps 741 mmHg 74%
    09:00 +20°C° 0 mm 3 mps 742 mmHg 70%
    10:00 +22°C° 0 mm 3 mps 742 mmHg 65%
    11:00 +24°C° 0 mm 3 mps 742 mmHg 60%
    12:00 +25°C° 0 mm 3 mps 742 mmHg 55%
    13:00 +25°C° 0 mm 2 mps 742 mmHg 53%
    14:00 +26°C° 0 mm 2 mps 742 mmHg 52%
    15:00 +26°C° 0 mm 2 mps 742 mmHg 50%
    16:00 +26°C° 0 mm 2 mps 742 mmHg 53%
    17:00 +26°C° 0 mm 1 mps 742 mmHg 55%
    18:00 +26°C° 0 mm 1 mps 741 mmHg 58%
    19:00 +24°C° 0 mm 1 mps 741 mmHg 62%
    20:00 +20°C° 0 mm 0 mps 741 mmHg 66%
    21:00 +18°C° 0 mm 0 mps 742 mmHg 69%
    22:00 +19°C° 0 mm 1 mps 742 mmHg 71%
    23:00 +19°C° 0 mm 1 mps 742 mmHg 73%

    Day after tomorrow, 20 June, Thursday

    Time Temperature Precipitation Wind Pressure Humidity
    00:00 +18°C° 0 mm 1 mps 742 mmHg 74%
    01:00 +16°C° 0 mm 1 mps 742 mmHg 77%
    02:00 +16°C° 0 mm 1 mps 742 mmHg 79%
    03:00 +16°C° 0 mm 1 mps 742 mmHg 81%
    04:00 +16°C° 0 mm 1 mps 743 mmHg 81%
    05:00 +18°C° 0 mm 1 mps 743 mmHg 81%
    06:00 +19°C° 0 mm 1 mps 743 mmHg 81%
    07:00 +20°C° 0 mm 1 mps 743 mmHg 76%
    08:00 +22°C° 0 mm 1 mps 743 mmHg 71%
    09:00 +24°C° 0 mm 1 mps 743 mmHg 66%
    10:00 +25°C° 0 mm 1 mps 743 mmHg 61%
    11:00 +24°C° 0 mm 0 mps 743 mmHg 56%
    12:00 +25°C° 0 mm 0 mps 743 mmHg 51%
    13:00 +25°C° 0 mm 0 mps 743 mmHg 49%
    14:00 +26°C° 0 mm 0 mps 743 mmHg 47%
    15:00 +28°C° 0 mm 1 mps 743 mmHg 46%
    16:00 +28°C° 0 mm 1 mps 743 mmHg 50%
    17:00 +28°C° 0 mm 1 mps 743 mmHg 54%
    18:00 +27°C° 0 mm 1 mps 742 mmHg 58%
    19:00 +25°C° 0 mm 1 mps 742 mmHg 61%
    20:00 +23°C° 0 mm 1 mps 742 mmHg 64%
    21:00 +21°C° 0 mm 1 mps 742 mmHg 68%
    22:00 +20°C° 0 mm 1 mps 743 mmHg 70%
    23:00 +20°C° 0 mm 1 mps 743 mmHg 72%

    21 June, Friday

    Time Temperature Precipitation Wind Pressure Humidity
    00:00 +18°C° 0 mm 2 mps 743 mmHg 75%
    01:00 +18°C° 0 mm 2 mps 743 mmHg 76%
    02:00 +17°C° 0 mm 2 mps 743 mmHg 78%
    03:00 +17°C° 0 mm 2 mps 743 mmHg 80%
    04:00 +19°C° 0 mm 1 mps 743 mmHg 80%
    05:00 +19°C° 0 mm 1 mps 744 mmHg 80%
    06:00 +20°C° 0 mm 1 mps 744 mmHg 79%
    07:00 +21°C° 0 mm 1 mps 744 mmHg 75%
    08:00 +23°C° 0 mm 2 mps 744 mmHg 71%
    09:00 +24°C° 0 mm 2 mps 744 mmHg 66%
    10:00 +25°C° 0 mm 2 mps 744 mmHg 63%
    11:00 +26°C° 0 mm 3 mps 744 mmHg 60%
    12:00 +27°C° 0 mm 3 mps 744 mmHg 57%
    13:00 +27°C° 0 mm 3 mps 744 mmHg 57%
    14:00 +27°C° 0 mm 3 mps 743 mmHg 57%
    15:00 +27°C° 0 mm 3 mps 743 mmHg 57%
    16:00 +27°C° 0 mm 3 mps 743 mmHg 61%
    17:00 +27°C° 0 mm 3 mps 743 mmHg 65%
    18:00 +27°C° 0 mm 2 mps 743 mmHg 69%
    19:00 +25°C° 0 mm 2 mps 743 mmHg 71%
    20:00 +23°C° 0 mm 2 mps 743 mmHg 74%
    21:00 +21°C° 0 mm 2 mps 743 mmHg 77%
    22:00 +20°C° 0 mm 2 mps 743 mmHg 79%
    23:00 +19°C° 0 mm 2 mps 743 mmHg 81%

    22 June, Saturday

    Time Temperature Precipitation Wind Pressure Humidity
    00:00 +19°C° 0 mm 2 mps 743 mmHg 82%
    01:00 +18°C° 0 mm 2 mps 743 mmHg 84%
    02:00 +18°C° 0 mm 2 mps 743 mmHg 85%
    03:00 +18°C° 0 mm 2 mps 743 mmHg 87%
    04:00 +18°C° 0 mm 2 mps 743 mmHg 86%
    05:00 +19°C° 0 mm 3 mps 743 mmHg 86%
    06:00 +19°C° 0 mm 3 mps 743 mmHg 85%
    07:00 +21°C° 0 mm 3 mps 743 mmHg 80%
    08:00 +22°C° 0 mm 3 mps 743 mmHg 76%
    09:00 +25°C° 0 mm 4 mps 743 mmHg 72%
    10:00 +26°C° 0 mm 4 mps 743 mmHg 68%
    11:00 +27°C° 0 mm 4 mps 743 mmHg 64%
    12:00 +28°C° 0 mm 4 mps 743 mmHg 60%
    13:00 +28°C° 0 mm 4 mps 743 mmHg 60%
    14:00 +28°C° 0 mm 5 mps 743 mmHg 60%
    15:00 +28°C° 0 mm 5 mps 743 mmHg 60%
    16:00 +28°C° 0 mm 4 mps 742 mmHg 63%
    17:00 +28°C° 0 mm 4 mps 742 mmHg 67%
    18:00 +27°C° 0 mm 4 mps 742 mmHg 71%
    19:00 +26°C° 0 mm 3 mps 742 mmHg 74%
    20:00 +25°C° 0 mm 3 mps 742 mmHg 77%
    21:00 +22°C° 0 mm 3 mps 742 mmHg 80%
    22:00 +21°C° 0 mm 3 mps 742 mmHg 82%
    23:00 +21°C° 0 mm 3 mps 743 mmHg 84%

    23 June, Sunday

    Time Temperature Precipitation Wind Pressure Humidity
    00:00 +20°C° 0 mm 3 mps 743 mmHg 86%
    01:00 +20°C° 0 mm 3 mps 743 mmHg 87%
    02:00 +20°C° 0 mm 3 mps 743 mmHg 89%
    03:00 +19°C° 0 mm 3 mps 743 mmHg 90%
    04:00 +20°C° 0 mm 3 mps 743 mmHg 90%
    05:00 +20°C° 0 mm 3 mps 743 mmHg 89%
    06:00 +21°C° 0 mm 3 mps 743 mmHg 88%
    07:00 +22°C° 0 mm 3 mps 743 mmHg 83%
    08:00 +25°C° 0 mm 3 mps 744 mmHg 79%
    09:00 +26°C° 0 mm 3 mps 744 mmHg 74%
    10:00 +27°C° 0 mm 3 mps 744 mmHg 69%
    11:00 +28°C° 0 mm 3 mps 744 mmHg 64%
    12:00 +29°C° 0 mm 3 mps 744 mmHg 58%
    13:00 +29°C° 0 mm 3 mps 743 mmHg 58%
    14:00 +29°C° 0 mm 3 mps 743 mmHg 58%
    15:00 +30°C° 0 mm 4 mps 743 mmHg 57%
    16:00 +29°C° 0 mm 3 mps 743 mmHg 61%
    17:00 +29°C° 0 mm 3 mps 743 mmHg 65%
    18:00 +28°C° 0 mm 3 mps 742 mmHg 68%
    19:00 +27°C° 0 mm 2 mps 743 mmHg 71%
    20:00 +25°C° 0 mm 2 mps 743 mmHg 74%
    21:00 +23°C° 0 mm 2 mps 743 mmHg 77%
    22:00 +23°C° 0 mm 2 mps 743 mmHg 77%
    23:00 +21°C° 0 mm 2 mps 743 mmHg 77%
    Show more